OZ1IEP-5 Weather Reports


time (UTC)temp
C
wind
direction
speed
KPH
gust
KPH
rain 1hr
cm
rain 24hr
cm
rain mn
cm
humidity
%
barometer
mb
20260904220008 14 261 1.6 20.9 0.00 1.27 0.00 90 1000.0
20260904215006 14 255 3.2 25.7 0.00 1.27 1.27 90 999.8
20260904214005 14 249 3.2 16.1 0.00 1.27 1.27 90 999.8
20260904213008 14 249 8.0 24.1 0.00 1.27 1.27 90 999.8
20260904212006 14 245 4.8 22.5 0.00 1.27 1.27 91 999.7
20260904211005 14 248 8.0 22.5 0.00 1.27 1.27 91 999.7
20260904210007 13 264 4.8 24.1 0.00 1.27 1.27 91 999.5
20260904205006 13 256 1.6 14.5 0.00 1.27 1.27 91 999.4
20260904204006 13 287 4.8 19.3 0.00 1.27 1.27 92 999.3
20260904203008 13 248 4.8 24.1 0.00 1.27 1.27 92 999.3
20260904202005 14 254 4.8 19.3 0.00 1.27 1.27 93 999.2
20260904201006 14 217 4.8 22.5 0.00 1.27 1.27 93 999.1
20260904200008 14 266 8.0 22.5 0.03 1.27 1.27 93 998.9
20260904195005 14 234 6.4 24.1 0.03 1.27 1.27 93 998.8
20260904194006 14 268 4.8 19.3 0.10 1.27 1.27 94 998.6
20260904193008 14 230 3.2 9.7 0.10 1.27 1.27 94 998.7
20260904192005 14 257 3.2 19.3 0.10 1.27 1.27 94 998.6
20260904191005 14 239 4.8 19.3 0.13 1.27 1.27 94 998.4
20260904190017 14 232 6.4 20.9 0.10 1.24 1.24 93 998.2
20260904185005 14 223 3.2 22.5 0.10 1.24 1.24 93 998.1
20260904184006 14 239 9.7 20.9 0.03 1.17 1.17 93 998.0
20260904183008 14 238 4.8 11.3 0.03 1.17 1.17 93 998.0
20260904182005 14 237 4.8 20.9 0.03 1.17 1.17 93 997.9
20260904181005 14 219 3.2 19.3 0.00 1.14 1.14 93 997.9
20260904180007 14 197 3.2 14.5 0.00 1.14 1.14 93 997.8
20260904175005 14 229 1.6 9.7 0.00 1.14 1.14 93 997.8
20260904174006 15 213 1.6 9.7 0.00 1.14 1.14 93 997.8
20260904173008 15 205 0.0 12.9 0.00 1.14 1.14 93 997.8
20260904172006 15 198 3.2 12.9 0.00 1.14 1.14 93 997.8
20260904171005 15 233 1.6 14.5 0.00 1.14 1.14 93 997.8
20260904170008 15 236 3.2 14.5 0.00 1.14 1.14 93 997.9
20260904165005 15 209 0.0 3.2 0.00 1.14 1.14 93 997.7
20260904164005 15 216 0.0 4.8 0.00 1.14 1.14 93 997.4
20260904163008 15 235 0.0 3.2 0.00 1.14 1.14 93 997.7
20260904162005 15 220 1.6 12.9 0.00 1.14 1.14 93 997.7
20260904161005 15 213 1.6 8.0 0.00 1.14 1.14 93 997.7
20260904160008 15 179 1.6 12.9 0.00 1.14 1.14 93 997.9
20260904155005 15 228 1.6 14.5 0.00 1.14 1.14 93 997.9
20260904154008 15 220 3.2 14.5 0.00 1.14 1.14 93 998.1
20260904153007 15 218 3.2 14.5 0.03 1.14 1.14 93 998.1
20260904152005 15 230 1.6 11.3 0.03 1.14 1.14 93 998.0
20260904151005 15 232 1.6 16.1 0.03 1.14 1.14 94 998.0
20260904150008 15 229 3.2 11.3 0.03 1.14 1.14 94 998.0
20260904145005 15 220 1.6 11.3 0.03 1.14 1.14 94 997.9
20260904144006 15 220 4.8 12.9 0.05 1.17 1.14 94 998.1
20260904143008 15 222 3.2 9.7 0.03 1.14 1.12 94 998.0
20260904142006 15 236 1.6 4.8 0.05 1.17 1.12 93 998.2
20260904141005 15 224 1.6 11.3 0.15 1.19 1.12 93 998.2
20260904140008 14 231 1.6 11.3 0.25 1.19 1.12 93 998.2
20260904135006 14 221 1.6 9.7 0.46 1.19 1.12 93 998.2
20260904134006 14 203 0.0 8.0 0.58 1.17 1.09 93 998.5
20260904133008 14 297 0.0 19.3 0.64 1.17 1.09 93 998.4
20260904132006 14 301 1.6 32.2 0.64 1.17 1.09 93 998.4
20260904131006 15 336 22.5 32.2 0.56 1.07 0.99 93 998.1
20260904130008 16 184 3.2 16.1 0.43 0.94 0.86 93 998.0
20260904125005 16 185 3.2 8.0 0.30 0.74 0.66 93 998.2
20260904124006 16 176 3.2 11.3 0.18 0.61 0.51 93 998.2
20260904123008 16 145 1.6 4.8 0.15 0.53 0.46 93 998.2
20260904122006 16 162 1.6 4.8 0.15 0.51 0.43 93 998.3
20260904121006 16 200 1.6 8.0 0.15 0.51 0.43 93 998.8
20260904120008 15 185 1.6 8.0 0.18 0.51 0.43 93 998.8
20260904115006 16 203 1.6 4.8 0.15 0.46 0.36 93 999.0
20260904114005 16 176 0.0 8.0 0.13 0.46 0.33 93 999.3
20260904113008 16 205 1.6 4.8 0.10 0.43 0.30 93 999.3
20260904112006 16 208 1.6 9.7 0.10 0.41 0.28 93 999.3
20260904111006 16 168 1.6 8.0 0.08 0.38 0.25 93 999.3
20260904110008 16 193 1.6 9.7 0.08 0.36 0.23 93 999.3
20260904105006 16 203 1.6 11.3 0.05 0.33 0.23 93 999.5
20260904104006 16 219 0.0 9.7 0.05 0.33 0.23 93 999.6
20260904103008 16 215 0.0 11.3 0.05 0.33 0.20 93 999.8
20260904102006 16 185 0.0 11.3 0.05 0.30 0.18 93 999.8
20260904101006 16 170 1.6 9.7 0.05 0.30 0.18 93 1000.0
20260904100009 16 167 3.2 9.7 0.05 0.28 0.15 93 1000.1
20260904095006 15 160 0.0 11.3 0.05 0.30 0.15 93 1000.3
20260904094006 15 188 0.0 19.3 0.05 0.30 0.15 92 1000.4
20260904093008 15 166 1.6 9.7 0.05 0.28 0.15 92 1000.6
20260904092006 15 160 1.6 11.3 0.03 0.25 0.13 92 1000.9
20260904091006 15 176 1.6 4.8 0.05 0.28 0.13 92 1000.9
20260904090008 15 169 0.0 9.7 0.05 0.30 0.13 92 1001.1
20260904085006 15 168 0.0 4.8 0.05 0.33 0.13 92 1001.4
20260904084006 15 193 1.6 8.0 0.03 0.30 0.10 91 1001.5
20260904083008 15 170 0.0 9.7 0.03 0.33 0.10 91 1001.6
20260904082006 15 167 0.0 14.5 0.03 0.33 0.10 91 1001.6
20260904081006 15 169 0.0 9.7 0.00 0.33 0.08 90 1001.9
20260904080008 15 174 0.0 11.3 0.00 0.36 0.08 90 1001.9
20260904075006 15 170 1.6 19.3 0.00 0.36 0.08 91 1001.9
20260904074006 15 170 0.0 9.7 0.00 0.36 0.08 91 1002.0
20260904073008 15 170 1.6 9.7 0.00 0.36 0.08 91 1001.9
20260904072006 15 170 0.0 0.0 0.00 0.38 0.08 91 1002.0
20260904071006 15 163 0.0 3.2 0.00 0.38 0.08 91 1002.3
20260904070008 15 190 0.0 4.8 0.00 0.38 0.08 91 1002.4
20260904065006 15 163 0.0 4.8 0.00 0.41 0.08 91 1002.5
20260904064006 15 198 0.0 3.2 0.00 0.41 0.08 91 1002.7
20260904063008 15 209 0.0 0.0 0.00 0.41 0.08 91 1002.9
20260904062006 15 192 0.0 1.6 0.00 0.41 0.08 91 1003.0
20260904061005 15 199 0.0 0.0 0.00 0.41 0.08 91 1003.0
20260904060008 15 217 0.0 0.0 0.00 0.41 0.08 90 1003.1
20260904055006 15 231 0.0 11.3 0.00 0.43 0.08 90 1003.3
20260904054006 15 198 0.0 9.7 0.00 0.43 0.08 90 1003.6
20260904053008 15 248 0.0 8.0 0.00 0.43 0.08 90 1003.7
20260904052005 15 219 0.0 0.0 0.00 0.43 0.08 90 1003.9
20260904051005 15 209 0.0 1.6 0.00 0.43 0.08 90 1003.8
20260904050008 15 203 0.0 8.0 0.00 0.43 0.08 90 1004.0
20260904045006 15 236 0.0 8.0 0.00 0.43 0.08 90 1004.0
20260904044005 15 227 1.6 8.0 0.00 0.43 0.08 90 1004.0
20260904043008 15 226 0.0 4.8 0.00 0.43 0.08 90 1004.0
20260904042007 15 218 0.0 19.3 0.00 0.43 0.08 89 1004.0
20260904041006 15 227 0.0 9.7 0.00 0.43 0.08 89 1003.8
20260904040011 15 239 0.0 9.7 0.00 0.43 0.08 89 1004.0
20260904035007 15 230 0.0 19.3 0.00 0.43 0.08 90 1004.1
20260904034007 15 253 0.0 22.5 0.00 0.43 0.08 90 1004.4
20260904033010 15 226 1.6 14.5 0.00 0.43 0.08 90 1004.3
20260904032007 15 224 1.6 11.3 0.00 0.43 0.08 90 1004.6
20260904031007 15 263 1.6 16.1 0.00 0.43 0.08 91 1004.6
20260904030008 15 235 3.2 20.9 0.00 0.43 0.08 91 1004.6
20260904025006 15 242 3.2 19.3 0.00 0.43 0.08 91 1004.6
20260904024005 15 228 3.2 14.5 0.00 0.43 0.08 91 1004.5
20260904023009 15 240 3.2 14.5 0.00 0.43 0.08 92 1004.9
20260904022006 15 243 3.2 19.3 0.00 0.43 0.08 92 1004.7
20260904021006 15 218 3.2 16.1 0.00 0.43 0.08 92 1004.8
20260904020009 15 249 0.0 19.3 0.00 0.43 0.08 92 1005.1
20260904015006 15 228 3.2 19.3 0.00 0.43 0.08 92 1005.1
20260904014008 15 240 1.6 19.3 0.00 0.46 0.08 93 1005.1
20260904013009 15 243 3.2 19.3 0.00 0.46 0.08 93 1005.1
20260904012006 15 240 1.6 19.3 0.00 0.46 0.08 93 1005.1
20260904011006 15 227 1.6 19.3 0.03 0.51 0.08 93 1005.1
20260904010008 15 225 0.0 1.6 0.03 0.51 0.08 93 1005.2
20260904005006 15 224 0.0 3.2 0.03 0.51 0.08 93 1005.2
20260904004006 15 244 0.0 4.8 0.03 0.51 0.08 93 1005.5
20260904003008 15 278 0.0 9.7 0.05 0.51 0.08 92 1005.6
20260904002006 15 274 1.6 19.3 0.08 0.51 0.08 92 1005.6
20260904001005 15 255 0.0 4.8 0.05 0.48 0.05 92 1005.6
20260904000009 15 267 0.0 9.7 0.05 0.48 0.05 91 1005.6
20260903235006 15 247 0.0 14.5 0.05 0.48 0.05 91 1005.6
20260903234006 15 237 0.0 8.0 0.05 0.48 0.05 91 1005.6
20260903233008 16 260 0.0 9.7 0.05 0.46 0.05 90 1005.8
20260903232005 16 239 1.6 19.3 0.00 0.43 0.00 90 1005.6
20260903231006 16 237 1.6 25.7 0.00 0.43 0.00 90 1005.5
20260903230008 16 240 1.6 11.3 0.00 0.43 0.00 90 1005.5
20260903225006 16 242 0.0 3.2 0.00 0.43 0.00 90 1005.6
20260903224006 16 229 1.6 14.5 0.00 0.43 0.00 90 1005.7
20260903223008 16 238 0.0 11.3 0.00 0.43 0.00 89 1005.7
20260903222006 16 297 0.0 11.3 0.00 0.43 0.00 89 1005.7
20260903221006 16 228 1.6 16.1 0.00 0.43 0.00 89 1005.8